Location: Axtheid
(49.6213°N, 11.8205°E)
Time: 10:49:41
(UTC+00:00)

Envisat - Pass Details

Date: 06 October 2022
Orbit: 763 x 765 km, 98.2° (Epoch: 01 December)

Event Time Altitude Azimuth Distance (km) Brightness Sun altitude
Rises 02:06:03 0° 30° (NNE) 3,245 7.1 -30.9°
Reaches altitude 10° 02:09:38 10° 56° (NE) 2,312 6.4 -30.4°
Maximum altitude 02:12:09 14° 86° (E) 2,060 5.9 -30.1°
Drops below altitude 10° 02:14:40 10° 116° (ESE) 2,302 5.8 -29.7°
Sets 02:18:12 0° 142° (SE) 3,221 6.3 -29.2°
